Find Starlink 33973

NORAD ID: 63894 Int'l Des: 2025-095 Owner: SPXS Country: US Constellation: starlink operational
LEOCIRCULAR

当前视图

正在加载3D地球...

About Starlink 33973

Starlink 33973 (NORAD 63894) is a starlink constellation satellite (v2 mini) launched May 10, 2025 by SPXS of US. It operates in LEO, CIRCULAR orbit with a mass of 575.00 kg.

关于 Starlink 33973

正在加载描述...

即将过境

Passes for default location (London). Set your location on the main map for personalized predictions.

高度历史

Loading altitude history...

两行轨道根数

1 63894U 25095E 26162.26453912 .00019120 00000-0 70235-3 0 9993
2 63894 42.9934 7.3429 0001969 277.0490 83.0138 15.27586939 62109
Epoch: Jun 11, 2026 • Age: 13 hours

当前状态

高度 482.3 km
速度 7.63 km/s
星下点 14.69°N, 164.49°W
发射日期 May 10, 2025
运行时间 1 year
类型 internet

技术详情

分类 Payload
质量 575.00 kg
干质量 530.00 kg
总质量 575.00 kg
长度 0.30 m
直径 4.10 m
跨度 29.00 m
形状 Box + pan
制造商 SPXS
平台类型 Starlink V2MO
阶段状态 In Orbit
所有者/国家 SPXS/US

Most Searched